Location: Maddington
(51.2000°N, 1.9167°W)
Time: 16:41:07
(UTC+00:00)

Cosmos 1125 Rocket - Pass Details

Date: 25 June 2021
Orbit: 757 x 780 km, 74.0° (Epoch: 28 July)

Event Time Altitude Azimuth Distance (km) Brightness Sun altitude
Rises 01:21:46 0° 335° (NNW) 3,248 7.5 -13.8°
Reaches altitude 10° 01:24:08 10° 336° (NNW) 2,321 6.7 -13.7°
Maximum altitude 01:29:26 87° 67° (ENE) 781 3.5 -13.4°
Drops below altitude 10° 01:34:43 10° 156° (SSE) 2,320 5.6 -13.1°
Enters shadow 01:35:00 - 156° (SSE) 2,430 5.7 -13.1°
